Location: Lake Arresoe
(56.0000°N, 12.5000°E)
Time: 10:16:05
(UTC+02:00)

Cosmos 1674 - Pass Details

Date: 19 August 2020
Orbit: 495 x 517 km, 82.5° (Epoch: 23 September)

Event Time Altitude Azimuth Distance (km) Brightness Sun altitude
Rises 23:56:50 0° 356° (N) 2,606 7.7 -19.4°
Reaches altitude 10° 23:59:23 10° 14° (NNE) 1,720 6.2 -19.6°
Maximum altitude 00:02:14 20° 63° (ENE) 1,207 4.6 -19.7°
Enters shadow 00:03:15 18° 85° (E) 1,281 4.5 -19.7°
